Location: Cathedral Gorge
(37.8167°N, 114.4167°W)
Time: 12:57:41
(UTC-07:00)

ISS - Visible Passes

Search period start: 15 July 2018 00:00
Search period end: 25 July 2018 00:00
Orbit: 402 x 408 km, 51.6° (Epoch: 16 July)

Date Brightness Start Highest point End Pass type
(mag) Time Alt. Az. Time Alt. Az. Time Alt. Az.
16 Jul -0.4 01:15:02 11° NNW 01:15:03 11° NNW 01:16:02 10° N visible
16 Jul -0.7 04:28:15 10° NNW 04:30:29 17° NNE 04:32:43 10° ENE visible
17 Jul -0.3 00:24:16 11° N 00:24:16 11° N 00:24:39 10° NNE visible
17 Jul -0.4 03:36:44 10° N 03:38:08 12° NNE 03:39:31 10° NE visible
18 Jul -1.7 04:20:05 10° NNW 04:23:03 30° NNE 04:26:00 10° E visible
18 Jul -2.6 20:59:12 10° S 21:01:47 21° SE 21:04:22 10° E visible
18 Jul -2.2 22:35:05 10° W 22:38:07 34° NNW 22:41:10 10° NE visible
19 Jul -0.9 03:28:19 10° NNW 03:30:47 19° NNE 03:33:14 10° ENE visible
19 Jul -3.5 21:42:43 10° WSW 21:45:57 66° NW 21:49:13 10° NE visible
19 Jul -0.4 23:21:19 10° NW 23:22:57 13° NNW 23:24:37 10° N visible
20 Jul -0.4 02:36:41 10° N 02:38:25 14° NNE 02:40:10 10° NE visible
20 Jul -3.5 04:12:07 10° NW 04:15:24 70° NE 04:18:40 10° ESE visible
20 Jul -3.8 20:50:39 10° SW 20:53:51 59° SE 20:57:05 10° ENE visible
20 Jul -0.9 22:28:12 10° WNW 22:30:36 18° NNW 22:32:59 10° NNE visible
21 Jul -0.1 01:45:33 10° N 01:45:59 10° NNE 01:46:25 10° NNE visible
21 Jul -2.2 03:20:09 10° NW 03:23:14 36° NNE 03:26:19 10° ESE visible
21 Jul -2.5 04:57:01 10° W 04:59:33 20° SW 05:02:04 10° S visible
21 Jul -1.6 21:35:23 10° W 21:38:17 28° NNW 21:41:11 10° NNE visible
22 Jul -1.3 02:28:17 10° NNW 02:30:58 22° NNE 02:33:37 10° E visible
22 Jul -3.5 04:04:26 10° WNW 04:07:33 41° SW 04:10:40 10° SSE visible
22 Jul -2.8 20:42:52 10° WSW 20:46:02 51° NW 20:49:15 10° NE visible
22 Jul -0.4 22:21:53 10° NW 22:23:09 12° NNW 22:24:26 10° N visible
23 Jul -0.7 21:28:34 10° WNW 21:30:43 16° NNW 21:32:52 10° NNE visible
24 Jul -1.2 20:35:36 10° W 20:38:20 24° NNW 20:41:04 10° NNE visible
